DateTimeUTC,F1_A11,F1_S11,BsB_S11,BsG_S11,BsR_S11,BbsB_S11,BbsG_S11,BbsR_S11,BaB_A11,BaG_A11,BaR_A11,Tu_S11,T_S11,Uu_S11,U_S11,P_S11,T1_A11
2021-08-07T12:00:00Z,00000200,20000000,,,,,,,-000.44,-000.05,-000.30,18.3,24.9,03.9,02.6,0665.3,31.0
2021-08-07T12:01:00Z,00000200,20000000,,,,,,,0000.50,0000.25,-000.25,18.3,24.9,03.9,02.6,0665.3,31.0
2021-08-07T12:02:00Z,00000200,20000000,,,,,,,0000.13,0000.20,0000.63,18.3,24.9,03.9,02.6,0665.3,31.0
2021-08-07T12:03:00Z,00000200,60000000,,,,,,,-000.15,0000.10,0000.01,18.3,24.9,03.9,02.6,0665.3,31.0
2021-08-07T12:04:00Z,00000200,40000000,0002.02,0001.69,0000.79,0000.52,0000.27,0000.21,0000.73,0000.54,0000.24,18.4,24.8,03.9,02.7,0666.2,31.0
2021-08-07T12:05:00Z,00000200,00000000,0002.80,0001.34,0000.87,-000.16,0000.26,0000.50,0000.63,0000.58,0000.17,18.4,24.8,04.0,02.7,0666.3,31.0
2021-08-07T12:06:00Z,00000200,00000000,0001.49,0002.10,0000.70,0000.61,0000.25,0000.14,0000.76,0000.48,0001.01,18.4,24.7,04.2,02.8,0666.3,31.0
2021-08-07T12:07:00Z,00000200,00000000,0002.09,0001.85,0000.84,0000.49,-000.02,-000.07,0000.25,0000.46,0000.13,18.4,24.7,04.1,02.8,0666.3,30.9
2021-08-07T12:08:00Z,00000200,00000000,0003.03,0002.24,0001.09,0001.01,0000.24,0000.23,0000.66,0000.65,0000.16,18.4,24.7,04.1,02.8,0666.3,30.9
2021-08-07T12:09:00Z,00000200,00000000,0002.01,0001.71,0001.06,0000.83,0000.32,0000.42,-000.02,-000.04,0000.30,18.4,24.7,04.2,02.8,0666.3,31.0
2021-08-07T12:10:00Z,00000200,00000000,0002.22,0001.55,0000.98,0000.55,0000.42,0000.16,0000.66,0000.49,0000.06,18.4,24.8,04.1,02.8,0666.3,31.0
2021-08-07T12:11:00Z,00000200,00000000,0002.44,0001.55,0000.97,0000.36,0000.35,-000.02,0000.62,0000.79,0000.67,18.4,24.8,04.1,02.8,0666.3,31.0
2021-08-07T12:12:00Z,00000200,00000000,0002.20,0001.40,0001.13,0000.17,0000.41,0000.41,0000.23,0000.09,0000.39,18.4,24.8,04.1,02.8,0666.3,30.9
2021-08-07T12:13:00Z,00000200,00000000,0002.58,0001.42,0000.91,-000.10,0000.19,0000.08,0001.14,0000.80,0000.43,18.4,24.8,04.0,02.7,0666.3,30.9
2021-08-07T12:14:00Z,00000200,00000000,0002.37,0001.60,0000.81,0000.71,0000.59,0000.40,0000.40,0000.53,0000.50,18.4,24.8,04.2,02.8,0666.3,30.9
2021-08-07T12:15:00Z,00000200,00000000,0002.70,0001.59,0001.09,0000.79,0000.16,0000.40,0000.67,0000.45,0000.24,18.4,24.8,04.0,02.7,0666.3,30.9
2021-08-07T12:16:00Z,00000200,00000000,0002.10,0001.52,0000.85,-000.12,0000.28,0000.01,0000.36,0000.28,0000.08,18.4,24.8,04.1,02.8,0666.3,30.9
2021-08-07T12:17:00Z,00000200,00000000,0002.62,0001.54,0000.66,-000.04,0000.46,0000.19,0000.81,0000.67,0000.74,18.4,24.8,04.2,02.9,0666.3,30.9
2021-08-07T12:18:00Z,00000200,00000000,0001.56,0001.57,0000.94,0000.09,0000.49,0000.11,0000.01,0000.56,0000.37,18.4,24.8,04.2,02.9,0666.3,30.9
2021-08-07T12:19:00Z,00000200,00000000,0002.47,0001.72,0001.01,0000.45,0000.24,0000.29,0000.70,0000.29,0000.67,18.5,24.8,04.2,02.8,0666.3,30.9
2021-08-07T12:20:00Z,00000200,00000000,0001.91,0001.56,0001.02,0000.02,0000.33,0000.44,0000.41,0000.68,-000.06,18.4,24.8,04.3,02.9,0666.3,31.0
2021-08-07T12:21:00Z,00000200,00000000,0002.49,0001.32,0000.85,0000.51,-000.02,0000.52,0000.80,0000.50,0000.72,18.4,24.8,04.3,02.9,0666.3,30.9
2021-08-07T12:22:00Z,00000200,00000000,0002.08,0001.29,0001.28,0000.20,0000.08,0000.36,0000.36,0000.37,0000.14,18.5,24.8,04.2,02.9,0666.3,31.0
2021-08-07T12:23:00Z,00000200,00000000,0002.23,0001.43,0000.96,0000.88,-000.12,0000.30,0000.43,0000.55,0000.23,18.5,24.8,04.2,02.9,0666.3,30.9
2021-08-07T12:24:00Z,00000200,00000000,0002.47,0001.37,0000.76,0000.61,0000.20,0000.41,0000.65,-000.04,0000.52,18.5,24.8,04.2,02.9,0666.3,30.9
2021-08-07T12:25:00Z,00000200,00000000,0002.34,0001.16,0000.84,0000.84,-000.02,0000.17,0000.48,0000.55,0000.05,18.5,24.8,04.2,02.8,0666.3,30.9
2021-08-07T12:26:00Z,00000200,00000000,0002.28,0001.42,0001.48,0000.15,0000.34,0000.25,-000.14,0000.38,0000.29,18.5,24.8,04.1,02.8,0666.3,30.9
2021-08-07T12:27:00Z,00000200,00000000,0002.32,0001.93,0000.79,0000.49,0000.12,-000.09,0000.71,0000.79,0000.71,18.5,24.8,04.2,02.8,0666.3,30.9
2021-08-07T12:28:00Z,00000200,00000000,0002.14,0001.75,0000.87,0000.42,0000.08,0000.32,0000.56,0000.09,-000.19,18.5,24.8,04.3,02.9,0666.3,30.9
2021-08-07T12:29:00Z,00000200,00000000,0002.13,0001.25,0000.86,0000.58,0000.11,-000.11,0000.75,0000.83,0000.76,18.5,24.8,04.4,03.0,0666.3,31.0
2021-08-07T12:30:00Z,00000200,00000000,0002.19,0001.69,0000.89,0000.37,0000.07,-000.01,0000.43,0000.49,0000.72,18.5,24.8,04.4,03.0,0666.3,31.0
2021-08-07T12:31:00Z,00000200,00000000,0003.10,0001.67,0000.90,0000.53,0000.58,-000.02,0000.65,0000.58,0000.30,18.5,24.8,04.4,03.0,0666.4,30.9
2021-08-07T12:32:00Z,00000200,00000000,0002.66,0001.36,0000.90,0000.24,0000.22,0000.17,0000.64,0000.64,0000.58,18.5,24.8,04.5,03.0,0666.4,30.9
2021-08-07T12:33:00Z,00000200,00000000,0001.91,0001.39,0001.37,0000.72,0000.15,0000.30,0000.43,0000.36,0000.37,18.5,24.8,04.4,03.0,0666.4,30.9
2021-08-07T12:34:00Z,00000200,00000000,0002.28,0001.52,0000.87,0000.33,0000.37,0000.56,0000.68,0000.25,0000.25,18.5,24.8,04.5,03.0,0666.4,30.9
2021-08-07T12:35:00Z,00000200,00000000,0002.35,0001.69,0000.77,0000.32,-000.26,0000.28,0000.26,0000.59,0000.16,18.5,24.8,04.4,03.0,0666.4,31.0
2021-08-07T12:36:00Z,00000200,00000000,0002.16,0001.73,0000.54,0000.60,0000.27,-000.05,0000.63,0000.56,0000.43,18.5,24.8,04.4,03.0,0666.4,30.9
2021-08-07T12:37:00Z,00000200,00000000,0001.86,0001.79,0000.68,0000.57,0000.05,-000.08,0000.26,0000.09,0000.13,18.5,24.8,04.5,03.0,0666.4,30.9
2021-08-07T12:38:00Z,00000200,00000000,0002.20,0001.29,0001.17,0000.39,0000.19,0000.28,0000.59,0000.48,0000.59,18.5,24.8,04.4,03.0,0666.4,30.9
2021-08-07T12:39:00Z,00000200,00000000,0002.22,0001.75,0001.27,0000.43,0000.31,0000.10,0000.56,0000.83,0000.62,18.5,24.8,04.5,03.0,0666.4,30.9
2021-08-07T12:40:00Z,00000200,00000000,0001.68,0001.49,0000.83,0000.56,0000.13,0000.11,0000.50,0000.25,0000.08,18.5,24.8,04.4,03.0,0666.4,30.9
2021-08-07T12:41:00Z,00000200,00000000,0002.22,0001.34,0001.20,0000.56,0000.56,0000.34,0000.54,0000.68,0000.70,18.5,24.8,04.5,03.1,0666.4,30.9
2021-08-07T12:42:00Z,00000200,00000000,0001.81,0001.59,0001.12,0001.16,0000.14,0000.55,0001.14,0000.87,0000.56,18.5,24.8,04.5,03.1,0666.4,31.0
2021-08-07T12:43:00Z,00000200,00000000,0002.03,0001.80,0000.77,0000.53,0000.35,0000.08,0000.01,0000.22,-000.19,18.5,24.8,04.5,03.1,0666.4,30.9
2021-08-07T12:44:00Z,00000200,00000000,0002.68,0001.53,0001.19,0000.37,0000.21,0000.21,0000.65,0000.36,0000.65,18.5,24.8,04.6,03.2,0666.4,30.9
2021-08-07T12:45:00Z,00000200,00000000,0002.00,0001.56,0001.17,0000.76,0000.10,0000.08,0000.65,0000.60,0000.25,18.5,24.8,04.6,03.1,0666.4,30.9
2021-08-07T12:46:00Z,00000200,00000000,0002.06,0001.96,0001.22,-000.21,0000.51,0000.21,0000.33,0000.78,0000.28,18.5,24.8,04.7,03.2,0666.4,30.9
2021-08-07T12:47:00Z,00000200,00000000,0002.81,0001.69,0001.02,0000.38,0000.25,0000.26,0000.98,0000.13,0000.17,18.5,24.8,04.7,03.2,0666.4,30.9
2021-08-07T12:48:00Z,00000200,00000000,0002.57,0002.01,0001.05,0000.70,0000.34,0000.20,0000.50,0001.16,0001.21,18.5,24.8,04.7,03.2,0666.4,30.9
2021-08-07T12:49:00Z,00000200,00000000,0001.96,0001.55,0001.09,0000.25,0000.27,0000.05,0000.71,0000.32,0000.21,18.5,24.8,04.7,03.2,0666.5,30.9
2021-08-07T12:50:00Z,00000200,00000000,0002.47,0002.00,0001.24,0000.36,0000.49,0000.23,0000.32,0000.04,0000.54,18.5,24.8,04.6,03.2,0666.5,30.9
2021-08-07T12:51:00Z,00000200,00000000,0003.17,0002.07,0000.85,0000.41,0000.14,0000.54,0000.70,0000.51,0000.19,18.5,24.9,04.7,03.2,0666.5,30.9
2021-08-07T12:52:00Z,00000200,00000000,0002.24,0001.69,0001.11,0000.25,0000.25,0000.26,0000.26,0000.73,0000.61,18.5,24.9,04.7,03.2,0666.5,30.9
2021-08-07T12:53:00Z,00000200,00000000,0002.84,0001.41,0001.16,0000.14,0000.27,0000.17,0000.84,0000.42,0000.33,18.6,24.8,04.5,03.1,0666.4,31.0
2021-08-07T12:54:00Z,00000200,00000000,0002.19,0001.96,0001.04,0000.59,0000.17,0000.00,0000.57,0000.90,0000.66,18.5,24.8,04.8,03.2,0666.4,30.9
2021-08-07T12:55:00Z,00000200,00000000,0002.68,0001.57,0001.20,0000.28,0000.21,0000.24,0000.73,0000.63,0000.37,18.6,24.8,04.8,03.3,0666.4,30.9
2021-08-07T12:56:00Z,00000200,00000000,0001.85,0001.98,0000.97,0000.06,0000.23,0000.16,0000.59,0000.32,0000.14,18.6,24.9,04.8,03.3,0666.4,30.9
2021-08-07T12:57:00Z,00000200,40000000,,,,,,,-000.07,0000.25,-000.06,18.6,24.9,04.7,03.2,0666.5,30.9
2021-08-07T12:58:00Z,00000200,60000000,,,,,,,-000.12,-000.31,0000.11,18.4,25.0,04.5,03.0,0665.4,30.9
2021-08-07T12:59:00Z,00000200,20000000,,,,,,,0000.32,0000.21,0000.45,18.4,25.1,04.5,03.0,0665.4,30.9
